TimeEDT,TemperatureF,Dew PointF,Humidity,Sea Level PressureIn,VisibilityMPH,Wind Direction,Wind SpeedMPH,Gust SpeedMPH,PrecipitationIn,Events,Conditions,WindDirDegrees,DateUTC
12:51 AM,75.9,62.1,62,30.12,10.0,WSW,10.4,-,N/A,,Clear,240,2013-06-16 04:51:00
1:51 AM,75.0,64.0,69,30.12,10.0,WSW,10.4,-,N/A,,Clear,240,2013-06-16 05:51:00
2:51 AM,75.9,64.9,69,30.12,10.0,WSW,11.5,-,N/A,,Clear,250,2013-06-16 06:51:00
3:51 AM,75.0,66.0,73,30.11,10.0,WSW,9.2,-,N/A,,Clear,250,2013-06-16 07:51:00
4:51 AM,75.0,66.9,76,30.12,10.0,WSW,9.2,-,N/A,,Clear,250,2013-06-16 08:51:00
5:51 AM,75.0,66.9,76,30.14,10.0,West,6.9,-,N/A,,Scattered Clouds,260,2013-06-16 09:51:00
6:51 AM,75.0,68.0,79,30.14,10.0,WSW,6.9,-,N/A,,Clear,250,2013-06-16 10:51:00
7:51 AM,75.9,66.9,74,30.15,10.0,WSW,5.8,-,N/A,,Mostly Cloudy,250,2013-06-16 11:51:00
8:51 AM,78.1,68.0,71,30.16,10.0,SW,9.2,-,N/A,,Partly Cloudy,230,2013-06-16 12:51:00
9:51 AM,80.1,69.1,69,30.16,10.0,WSW,11.5,-,N/A,,Scattered Clouds,240,2013-06-16 13:51:00
10:51 AM,80.1,68.0,67,30.15,10.0,SW,10.4,-,N/A,,Scattered Clouds,230,2013-06-16 14:51:00
11:51 AM,81.0,68.0,65,30.14,10.0,SW,10.4,-,N/A,,Scattered Clouds,230,2013-06-16 15:51:00
12:51 PM,82.0,68.0,62,30.12,10.0,SW,13.8,20.7,N/A,,Clear,230,2013-06-16 16:51:00
1:51 PM,82.0,68.0,62,30.10,10.0,SW,13.8,24.2,N/A,,Clear,230,2013-06-16 17:51:00
2:51 PM,82.0,68.0,62,30.09,10.0,WSW,15.0,23.0,N/A,,Clear,240,2013-06-16 18:51:00
3:51 PM,81.0,66.9,62,30.08,10.0,SW,13.8,23.0,N/A,,Clear,230,2013-06-16 19:51:00
4:51 PM,80.1,66.9,64,30.07,10.0,SW,16.1,23.0,N/A,,Clear,230,2013-06-16 20:51:00
5:51 PM,80.1,66.9,64,30.07,10.0,SW,13.8,21.9,N/A,,Clear,230,2013-06-16 21:51:00
6:51 PM,79.0,68.0,69,30.08,10.0,SW,13.8,19.6,N/A,,Clear,230,2013-06-16 22:51:00
7:51 PM,78.1,66.9,68,30.08,10.0,SW,12.7,-,N/A,,Clear,230,2013-06-16 23:51:00
8:51 PM,77.0,68.0,74,30.06,10.0,SW,12.7,21.9,N/A,,Clear,220,2013-06-17 00:51:00
9:51 PM,77.0,66.9,71,30.07,10.0,SW,12.7,20.7,N/A,,Clear,230,2013-06-17 01:51:00
10:51 PM,77.0,68.0,74,30.08,10.0,SW,16.1,23.0,N/A,,Clear,230,2013-06-17 02:51:00
11:51 PM,77.0,68.0,74,30.08,10.0,SW,12.7,-,N/A,,Clear,230,2013-06-17 03:51:00